Location: Greenhawk Observatory
(37.3417°N, 122.0298°W)
Time: 20:28:50
(UTC-08:00)

Daily predictions for brighter satellites

Satellite Brightness Start Highest point End
(mag) Time Altitude Azimuth Time Altitude Azimuth Time Altitude Azimuth
Meteor 2-10 3.9 17:40:25 10° N 17:45:28 69° E 17:50:35 10° SSE
Meteor 2-14 Rocket 4.5 17:41:43 10° N 17:47:50 83° E 17:53:54 10° S
Cosmos 2218 Rocket 4.2 17:42:20 10° N 17:48:17 48° E 17:54:10 10° SSE
USA 116 4.2 17:44:24 10° NNE 17:48:50 74° ESE 17:53:47 10° S
COSMOS 2406 4.3 17:44:54 10° SSE 17:49:27 25° ESE 17:53:59 10° NE
Cosmos 1455 4.1 17:52:09 10° NE 17:53:30 12° ENE 17:54:51 10° E
Cosmos 44 Rocket 3.4 17:50:03 10° SSW 17:54:35 55° ESE 17:59:13 10° NE
CZ-3 Stage 3 4.5 17:40:48 10° SW 17:58:15 34° S 18:02:37 10° ESE
Cosmos 968 Rocket 3.5 17:53:40 10° NNW 17:58:50 88° ENE 18:03:57 10° SSE
BREEZE-M DEB (TANK) 3.2 17:53:24 10° WSW 17:59:49 49° NW 18:02:30 10° NE
Tiangong 1 1.6 17:57:38 10° NW 17:59:52 29° NNE 18:01:41 13° ENE
Cosmos 1328 3.8 18:01:47 10° S 18:05:45 66° E 18:09:45 10° NNE
ATLAS 2AS CENTAUR R/B 3.8 18:00:47 10° NW 18:08:21 55° WSW 18:15:16 10° S
Cosmos 1400 Rocket 4.1 18:04:42 10° SSW 18:08:34 43° WNW 18:12:30 10° N
Cosmos 1626 2.3 18:06:45 10° S 18:10:20 49° E 18:13:57 10° NNE
SeaSat 1 4.2 18:08:23 10° S 18:12:55 37° WSW 18:17:29 10° NW
EO 1 Del DPAF 3.6 18:09:14 10° NNE 18:12:55 44° E 18:16:35 10° S
MONITOR-E 4.2 18:11:00 10° SSE 18:13:57 50° ENE 18:16:55 10° N
Cosmos 1766 Rocket 3.4 18:10:24 10° S 18:14:42 78° E 18:19:03 10° N
IRS-1A Rocket 4.3 18:10:55 10° SSE 18:16:25 85° WSW 18:22:05 10° NNW
ALOS 2.2 18:11:55 10° SSE 18:16:30 62° ENE 18:21:07 10° N
Cosmos 2098 Rocket 4.2 18:11:41 10° N 18:16:55 43° E 18:23:14 10° SSE
Landsat 4 3.6 18:14:01 10° NNE 18:17:46 74° ESE 18:21:27 10° S
Lacrosse 5 3.7 18:18:33 10° SE 18:20:58 13° ESE 18:21:58 13° ESE
Cosmos 2366 rocket 3.9 18:17:32 10° N 18:23:47 85° E 18:29:58 10° S
Cosmos 1703 3.4 18:24:05 10° S 18:27:56 52° E 18:31:49 10° NNE
SKYMED 2 3.9 18:24:07 10° N 18:28:27 67° WNW 18:32:44 10° SSW
DMSP B5D1-3 4.4 18:25:04 10° NNE 18:30:08 68° ESE 18:35:12 10° S
ERS-2 2.4 18:27:04 10° SE 18:30:34 44° ENE 18:34:06 10° N
NOSS 3-4 (A) 3.8 18:24:13 10° NNW 18:31:18 67° NE 18:38:53 10° SE
NOSS 3-4 (C) 3.8 18:24:19 10° NNW 18:31:25 67° NE 18:39:00 10° SE
Cosmos 1300 4.2 18:27:58 10° NNW 18:31:35 40° W 18:35:09 10° SSW
NOAA 12 4.0 18:27:18 10° SSE 18:32:31 77° ENE 18:37:46 10° N
YAOGAN 1 3.5 18:29:00 10° S 18:33:12 51° W 18:37:25 10° NNW
MOS 1 4.3 18:27:35 10° SSE 18:33:14 89° ENE 18:38:54 10° NNW
Cosmos 1151 Rocket 3.6 18:32:27 10° N 18:36:30 35° ENE 18:40:32 10° SE
Meteor 2-2 Rocket 4.3 18:31:00 10° N 18:36:44 85° W 18:42:22 10° S
Cosmos 1656 Rocket 3.6 18:32:06 10° NNW 18:37:37 90° WSW 18:43:10 10° SSE
Nadezhda 3 Rocket 4.0 18:33:38 10° S 18:39:48 60° E 18:46:03 10° NNE
Cosmos 2058 2.8 18:40:40 10° S 18:44:47 67° E 18:48:58 10° NNE
Cosmos 1943 Rocket 4.3 18:42:08 10° NW 18:46:51 29° WSW 18:51:31 10° SSW
SL-24 R/B - RUBIN 2 3.8 18:45:57 10° NW 18:50:22 67° WSW 18:54:37 10° SSE
CZ-4C R/B 3.1 18:51:16 10° SSE 18:54:42 24° ESE 18:54:42 24° ESE
OAO 3 Rocket 3.7 18:52:57 10° W 18:57:31 52° SSW 18:59:38 29° SE
ASTRO E2 3.8 18:54:02 10° WSW 18:57:41 34° S 18:58:47 29° SE
Thor Agena Rocket 3.7 18:56:39 24° NE 18:59:34 50° E 19:04:36 10° S
Cosmos 371 Rocket 3.1 18:56:22 10° SSW 19:01:09 84° ESE 19:04:05 24° NNE
Cosmos 2151 3.1 19:00:22 10° SSW 19:04:36 75° W 19:08:46 11° N
Cosmos 1934 Rocket 4.2 19:01:19 10° N 19:07:24 46° ENE 19:13:28 10° SSE
Cosmos 1515 Rocket 3.5 19:03:59 10° N 19:08:21 85° W 19:12:39 10° S
Cosmos 1346 Rocket 4.4 19:13:08 10° NNW 19:16:41 34° W 19:20:12 10° SSW
H-2A R/B 3.4 19:13:53 10° S 19:17:36 54° W 19:21:23 10° NNW
Cosmos 2082 Rocket 4.2 19:13:36 10° SSE 19:14:26 13° SSE 19:14:26 13° SSE
Cosmos 1500 Rocket 4.0 19:14:15 10° SSW 19:18:40 62° W 19:22:16 15° N
Cosmos 2239 Rocket 4.3 19:18:30 10° N 19:24:41 85° E 19:30:50 10° S
Cosmos 1455 3.5 19:25:46 10° NNW 19:29:22 39° W 19:32:55 10° SSW
Hubble Space Telescope 3.4 19:28:36 10° S 19:28:51 11° S 19:28:51 11° S
Cosmos 2228 Rocket 4.4 19:27:59 10° NNW 19:32:18 42° W 19:36:36 10° SSW
COSMOS 2406 4.3 19:28:04 10° SW 19:33:27 42° WNW 19:37:42 16° N
Cosmos 909 Rocket 3.9 19:26:56 10° NNW 19:33:37 90° ENE 19:36:18 37° SSE
Cosmos 2208 Rocket 4.4 19:34:04 10° SSW 19:39:16 63° WNW 19:40:54 42° N
Cosmos 1833 Rocket 4.5 19:39:27 10° S 19:40:56 18° S 19:40:56 18° S
Cosmos 468 Rocket 4.5 19:46:21 10° SSW 19:50:21 54° SW 19:50:21 54° SW
GEOS 3 Rocket 4.2 19:57:39 53° NW 19:57:39 53° NW 20:01:43 10° NW
Lacrosse 5 3.1 19:58:12 10° SW 20:01:13 36° SW 20:01:13 36° SW
CZ-4C R/B 4.4 20:38:35 10° WSW 20:39:58 18° WSW 20:39:58 18° WSW
